Location: Newark
(46.7000°N, 60.6000°W)
Time: 12:46:59
(UTC+00:00)

A-11 Canister half - Pass Details

Date: 02 November 2020
Orbit: 1525 x 1684 km, 47.3° (Epoch: 01 December)

Event Time Altitude Azimuth Distance (km) Brightness Sun altitude
Rises 14:20:47 0° 172° (S) 4,847 12.9 25.4°
Reaches altitude 10° 14:26:24 10° 147° (SSE) 3,829 12.8 25.7°
Maximum altitude 14:30:11 13° 123° (ESE) 3,577 11.9 26.0°
Drops below altitude 10° 14:33:55 10° 100° (E) 3,786 11.5 26.2°
Sets 14:39:20 0° 75° (ENE) 4,741 11.6 26.5°
